TimeEST,TemperatureF,Dew PointF,Humidity,Sea Level PressureIn,VisibilityMPH,Wind Direction,Wind SpeedMPH,Gust SpeedMPH,PrecipitationIn,Events,Conditions,WindDirDegrees,DateUTC
12:14 AM,30.2,30.2,100,30.46,10.0,North,3.5,-,N/A,,Clear,10,2012-11-15 05:14:00
12:35 AM,30.2,30.2,100,30.46,10.0,North,3.5,-,N/A,,Clear,350,2012-11-15 05:35:00
12:57 AM,30.2,28.4,93,30.45,10.0,Calm,Calm,-,N/A,,Clear,0,2012-11-15 05:57:00
1:18 AM,28.4,28.4,100,30.45,7.0,Calm,Calm,-,N/A,,Clear,0,2012-11-15 06:18:00
1:39 AM,28.4,28.4,100,30.45,7.0,Calm,Calm,-,N/A,,Clear,0,2012-11-15 06:39:00
2:00 AM,28.4,28.4,100,30.45,7.0,Calm,Calm,-,N/A,,Clear,0,2012-11-15 07:00:00
2:22 AM,28.4,28.4,100,30.45,10.0,Calm,Calm,-,N/A,,Clear,0,2012-11-15 07:22:00
2:43 AM,28.4,28.4,100,30.44,10.0,Calm,Calm,-,N/A,,Clear,0,2012-11-15 07:43:00
3:04 AM,28.4,28.4,100,30.44,10.0,Calm,Calm,-,N/A,,Clear,0,2012-11-15 08:04:00
3:26 AM,28.4,28.4,100,30.43,7.0,Calm,Calm,-,N/A,,Clear,0,2012-11-15 08:26:00
3:47 AM,28.4,28.4,100,30.43,7.0,Calm,Calm,-,N/A,,Clear,0,2012-11-15 08:47:00
4:08 AM,28.4,28.4,100,30.42,7.0,Calm,Calm,-,N/A,,Clear,0,2012-11-15 09:08:00
4:29 AM,28.4,28.4,100,30.42,7.0,Calm,Calm,-,N/A,,Clear,0,2012-11-15 09:29:00
4:51 AM,28.4,28.4,100,30.43,10.0,Calm,Calm,-,N/A,,Clear,0,2012-11-15 09:51:00
5:12 AM,28.4,28.4,100,30.43,10.0,Calm,Calm,-,N/A,,Clear,0,2012-11-15 10:12:00
5:33 AM,28.4,28.4,100,30.43,10.0,Calm,Calm,-,N/A,,Clear,0,2012-11-15 10:33:00
5:55 AM,28.4,28.4,100,30.43,10.0,Calm,Calm,-,N/A,,Clear,0,2012-11-15 10:55:00
6:16 AM,28.4,28.4,100,30.42,10.0,Calm,Calm,-,N/A,,Clear,0,2012-11-15 11:16:00
6:37 AM,26.6,26.6,100,30.42,4.0,Calm,Calm,-,N/A,,Clear,0,2012-11-15 11:37:00
6:58 AM,26.6,26.6,100,30.43,4.0,Calm,Calm,-,N/A,,Clear,0,2012-11-15 11:58:00
7:20 AM,26.6,26.6,100,30.44,3.0,Calm,Calm,-,N/A,,Unknown,0,2012-11-15 12:20:00
7:41 AM,26.6,26.6,100,30.44,4.0,Calm,Calm,-,N/A,,Clear,0,2012-11-15 12:41:00
8:02 AM,26.6,26.6,100,30.44,3.0,Calm,Calm,-,N/A,,Unknown,0,2012-11-15 13:02:00
8:23 AM,28.4,28.4,100,30.44,3.0,Calm,Calm,-,N/A,,Unknown,0,2012-11-15 13:23:00
8:44 AM,28.4,28.4,100,30.44,4.0,Calm,Calm,-,N/A,,Clear,0,2012-11-15 13:44:00
9:06 AM,30.2,30.2,100,30.44,5.0,Calm,Calm,-,N/A,,Clear,0,2012-11-15 14:06:00
10:09 AM,33.8,32.0,93,30.44,10.0,Calm,Calm,-,N/A,,Clear,0,2012-11-15 15:09:00
10:31 AM,35.6,30.2,81,30.44,10.0,Calm,Calm,-,N/A,,Clear,0,2012-11-15 15:31:00
10:52 AM,37.4,30.2,75,30.43,10.0,Calm,Calm,-,N/A,,Clear,0,2012-11-15 15:52:00
11:13 AM,39.2,30.2,70,30.42,10.0,Calm,Calm,-,N/A,,Clear,0,2012-11-15 16:13:00
11:34 AM,41.0,30.2,65,30.41,10.0,Calm,Calm,-,N/A,,Clear,0,2012-11-15 16:34:00
11:56 AM,41.0,30.2,65,30.39,10.0,Calm,Calm,-,N/A,,Clear,0,2012-11-15 16:56:00
12:17 PM,42.8,30.2,61,30.38,10.0,Calm,Calm,-,N/A,,Clear,0,2012-11-15 17:17:00
12:38 PM,42.8,30.2,61,30.37,10.0,South,3.5,-,N/A,,Clear,190,2012-11-15 17:38:00
12:59 PM,42.8,30.2,61,30.37,10.0,Calm,Calm,-,N/A,,Clear,0,2012-11-15 17:59:00
1:21 PM,44.6,30.2,57,30.36,10.0,Calm,Calm,-,N/A,,Clear,0,2012-11-15 18:21:00
1:42 PM,44.6,30.2,57,30.36,10.0,Calm,Calm,-,N/A,,Clear,0,2012-11-15 18:42:00
2:03 PM,44.6,30.2,57,30.35,10.0,Calm,Calm,-,N/A,,Clear,0,2012-11-15 19:03:00
2:24 PM,44.6,30.2,57,30.35,10.0,Calm,Calm,-,N/A,,Clear,0,2012-11-15 19:24:00
2:45 PM,46.4,32.0,57,30.35,10.0,Calm,Calm,-,N/A,,Clear,0,2012-11-15 19:45:00
3:07 PM,44.6,32.0,61,30.34,10.0,Calm,Calm,-,N/A,,Clear,0,2012-11-15 20:07:00
3:28 PM,46.4,32.0,57,30.33,10.0,Calm,Calm,-,N/A,,Clear,0,2012-11-15 20:28:00
3:49 PM,46.4,30.2,53,30.33,10.0,Calm,Calm,-,N/A,,Clear,0,2012-11-15 20:49:00
4:10 PM,44.6,30.2,57,30.33,10.0,Calm,Calm,-,N/A,,Clear,0,2012-11-15 21:10:00
4:32 PM,44.6,30.2,57,30.33,10.0,Calm,Calm,-,N/A,,Clear,0,2012-11-15 21:32:00
4:53 PM,42.8,30.2,61,30.33,10.0,Calm,Calm,-,N/A,,Clear,0,2012-11-15 21:53:00
5:14 PM,42.8,30.2,61,30.33,10.0,Calm,Calm,-,N/A,,Clear,0,2012-11-15 22:14:00
5:35 PM,41.0,32.0,70,30.34,10.0,Calm,Calm,-,N/A,,Clear,0,2012-11-15 22:35:00
5:57 PM,41.0,30.2,65,30.34,10.0,Calm,Calm,-,N/A,,Clear,0,2012-11-15 22:57:00
6:18 PM,41.0,30.2,65,30.34,10.0,Calm,Calm,-,N/A,,Clear,0,2012-11-15 23:18:00
6:39 PM,37.4,32.0,81,30.34,10.0,Calm,Calm,-,N/A,,Clear,0,2012-11-15 23:39:00
7:00 PM,39.2,32.0,75,30.34,10.0,Calm,Calm,-,N/A,,Clear,0,2012-11-16 00:00:00
7:21 PM,37.4,32.0,81,30.35,10.0,Calm,Calm,-,N/A,,Clear,0,2012-11-16 00:21:00
7:43 PM,37.4,32.0,81,30.35,10.0,Calm,Calm,-,N/A,,Clear,0,2012-11-16 00:43:00
8:04 PM,35.6,32.0,87,30.35,10.0,Calm,Calm,-,N/A,,Clear,0,2012-11-16 01:04:00
8:25 PM,35.6,32.0,87,30.35,10.0,Calm,Calm,-,N/A,,Clear,0,2012-11-16 01:25:00
8:47 PM,35.6,32.0,87,30.35,10.0,Calm,Calm,-,N/A,,Clear,0,2012-11-16 01:47:00
9:08 PM,35.6,32.0,87,30.35,10.0,Calm,Calm,-,N/A,,Clear,0,2012-11-16 02:08:00
9:29 PM,35.6,32.0,87,30.35,10.0,Calm,Calm,-,N/A,,Clear,0,2012-11-16 02:29:00
9:50 PM,35.6,32.0,87,30.35,10.0,Calm,Calm,-,N/A,,Clear,0,2012-11-16 02:50:00
10:12 PM,35.6,32.0,87,30.35,10.0,North,3.5,-,N/A,,Clear,10,2012-11-16 03:12:00
10:33 PM,35.6,32.0,87,30.35,10.0,North,4.6,-,N/A,,Clear,10,2012-11-16 03:33:00
10:54 PM,33.8,32.0,93,30.35,10.0,Calm,Calm,-,N/A,,Clear,0,2012-11-16 03:54:00
11:15 PM,32.0,32.0,100,30.35,10.0,Calm,Calm,-,N/A,,Clear,0,2012-11-16 04:15:00
11:37 PM,33.8,32.0,93,30.35,10.0,North,3.5,-,N/A,,Clear,360,2012-11-16 04:37:00
11:58 PM,32.0,32.0,100,30.36,10.0,NNE,3.5,-,N/A,,Clear,30,2012-11-16 04:58:00